TimeAKST,TemperatureF,Dew PointF,Humidity,Sea Level PressureIn,VisibilityMPH,Wind Direction,Wind SpeedMPH,Gust SpeedMPH,PrecipitationIn,Events,Conditions,WindDirDegrees,DateUTC
12:53 AM,28.9,21.9,75,29.93,10.0,Variable,5.8,-,N/A,,Overcast,0,2012-12-24 09:53:00
1:53 AM,28.9,21.9,75,29.95,10.0,NE,5.8,-,N/A,,Overcast,40,2012-12-24 10:53:00
3:53 AM,28.0,21.0,75,29.98,10.0,NNE,9.2,-,N/A,,Overcast,30,2012-12-24 12:53:00
4:53 AM,28.0,21.0,75,29.97,10.0,NE,6.9,-,N/A,,Overcast,50,2012-12-24 13:53:00
6:53 AM,28.0,21.0,75,29.99,10.0,NE,6.9,-,N/A,,Overcast,40,2012-12-24 15:53:00
7:53 AM,28.0,21.0,75,30.00,10.0,ENE,5.8,-,N/A,,Mostly Cloudy,70,2012-12-24 16:53:00
8:53 AM,28.9,21.0,72,29.99,10.0,NNE,8.1,-,N/A,,Overcast,30,2012-12-24 17:53:00
9:53 AM,30.0,21.0,69,29.99,10.0,NE,9.2,-,N/A,,Overcast,40,2012-12-24 18:53:00
10:53 AM,28.9,21.0,72,29.99,10.0,NNE,11.5,-,N/A,,Scattered Clouds,30,2012-12-24 19:53:00
11:53 AM,28.9,19.9,69,29.97,10.0,NNE,11.5,17.3,N/A,,Clear,30,2012-12-24 20:53:00
12:53 PM,30.0,19.9,66,29.95,10.0,NE,9.2,21.9,N/A,,Clear,50,2012-12-24 21:53:00
1:53 PM,28.9,19.0,67,29.93,10.0,NE,11.5,19.6,N/A,,Clear,40,2012-12-24 22:53:00
2:53 PM,28.0,19.0,69,29.92,10.0,NE,5.8,-,N/A,,Clear,50,2012-12-24 23:53:00
3:53 PM,28.0,19.0,69,29.90,10.0,NE,10.4,18.4,N/A,,Clear,40,2012-12-25 00:53:00
4:53 PM,28.0,18.0,66,29.87,10.0,NNE,13.8,28.8,N/A,,Clear,30,2012-12-25 01:53:00
5:53 PM,28.0,18.0,66,29.88,10.0,NNE,10.4,-,N/A,,Clear,20,2012-12-25 02:53:00
6:53 PM,28.0,18.0,66,29.85,10.0,NNE,12.7,21.9,N/A,,Clear,30,2012-12-25 03:53:00
7:53 PM,28.9,18.0,64,29.84,10.0,North,6.9,-,N/A,,Clear,10,2012-12-25 04:53:00
8:53 PM,30.0,19.0,64,29.83,10.0,NE,8.1,-,N/A,,Scattered Clouds,50,2012-12-25 05:53:00
9:53 PM,30.9,19.0,61,29.81,10.0,NNE,12.7,21.9,N/A,,Overcast,20,2012-12-25 06:53:00
10:53 PM,30.9,19.9,64,29.80,10.0,NNE,13.8,23.0,N/A,,Overcast,30,2012-12-25 07:53:00
11:53 PM,32.0,19.9,61,29.79,10.0,NNE,16.1,24.2,N/A,,Overcast,20,2012-12-25 08:53:00